Location: Arcones
(41.1182°N, 3.7238°W)
Time: 01:50:29
(UTC+00:00)

Cosmos 1726 Rocket - Pass Details

Date: 11 December 2025
Orbit: 553 x 663 km, 82.5° (Epoch: 14 January)

Event Time Altitude Azimuth Distance (km) Brightness Sun altitude
Rises 18:15:49 0° 194° (SSW) 2,983 7.5 -16.3°
Reaches altitude 10° 18:18:06 10° 198° (SSW) 2,076 6.7 -16.7°
Maximum altitude 18:22:42 63° 279° (W) 739 4.1 -17.5°
Drops below altitude 10° 18:27:17 10° 1° (N) 2,070 6.1 -18.3°
Enters shadow 18:29:11 - 4° (N) 2,826 6.8 -18.7°
